When you browse on this site, cookies collect data to enhance your experience and personalize the content and advertising you see.
Visit our Privacy Policy to learn more. By continuing to use the site, you agree to this use of cookies and data.
  • In Portugal
  • List of Countries
  • For 7 days
  • Water Temperature
  • Weather Map
  • Weather Widgets
  • user-avatar
    Login

    Hourly Weather La Massana

    Today, 29 January, Wednesday

    Time Temperature Precipitation Wind Pressure Humidity
    00:00 -3°C° 0 mm 1 mps 607 mmHg 69%
    01:00 -3°C° 0 mm 1 mps 607 mmHg 66%
    02:00 -3°C° 0 mm 1 mps 607 mmHg 63%
    03:00 -5°C° 0 mm 2 mps 607 mmHg 61%
    04:00 -5°C° 0 mm 2 mps 607 mmHg 64%
    05:00 -5°C° 0 mm 2 mps 607 mmHg 66%
    06:00 -5°C° 0 mm 2 mps 608 mmHg 69%
    07:00 -3°C° 0 mm 2 mps 608 mmHg 69%
    08:00 0°C° 0 mm 1 mps 609 mmHg 69%
    09:00 +1°C° 0 mm 1 mps 610 mmHg 69%
    10:00 +2°C° 0 mm 1 mps 611 mmHg 70%
    11:00 +3°C° 0 mm 1 mps 611 mmHg 71%
    12:00 +4°C° 0 mm 1 mps 612 mmHg 72%
    13:00 +4°C° 0 mm 1 mps 611 mmHg 74%
    14:00 +3°C° 0 mm 0 mps 611 mmHg 77%
    15:00 +3°C° 0 mm 0 mps 610 mmHg 79%
    16:00 +3°C° 0 mm 1 mps 610 mmHg 77%
    17:00 +1°C° 0 mm 1 mps 609 mmHg 75%
    18:00 0°C° 0 mm 1 mps 609 mmHg 73%
    19:00 -1°C° 0 mm 1 mps 609 mmHg 71%
    20:00 -1°C° 0 mm 1 mps 609 mmHg 69%
    21:00 -1°C° 0 mm 1 mps 609 mmHg 67%
    22:00 -1°C° 0 mm 1 mps 609 mmHg 68%
    23:00 -3°C° 0 mm 2 mps 609 mmHg 69%

    Tomorrow, 30 January, Thursday

    Time Temperature Precipitation Wind Pressure Humidity
    00:00 -3°C° 0 mm 2 mps 609 mmHg 69%
    01:00 -2°C° 0 mm 2 mps 609 mmHg 68%
    02:00 -2°C° 0 mm 2 mps 609 mmHg 67%
    03:00 0°C° 0 mm 1 mps 609 mmHg 66%
    04:00 +1°C° 0 mm 1 mps 609 mmHg 71%
    05:00 +1°C° 0 mm 1 mps 609 mmHg 76%
    06:00 +1°C° 0 mm 1 mps 609 mmHg 81%
    07:00 +2°C° 0.1 mm 1 mps 609 mmHg 84%
    08:00 +3°C° 0.1 mm 1 mps 610 mmHg 87%
    09:00 +4°C° 0.1 mm 1 mps 610 mmHg 90%
    10:00 +4°C° 0 mm 1 mps 610 mmHg 89%
    11:00 +5°C° 0 mm 1 mps 611 mmHg 88%
    12:00 +6°C° 0 mm 1 mps 611 mmHg 88%
    13:00 +4°C° 0 mm 0 mps 611 mmHg 89%
    14:00 +4°C° 0 mm 0 mps 610 mmHg 89%
    15:00 +4°C° 0 mm 0 mps 610 mmHg 90%
    16:00 +3°C° 0.1 mm 0 mps 610 mmHg 91%
    17:00 +3°C° 0.1 mm 1 mps 609 mmHg 93%
    18:00 +2°C° 0.1 mm 1 mps 609 mmHg 94%
    19:00 +2°C° 0.1 mm 1 mps 609 mmHg 94%
    20:00 +3°C° 0.1 mm 1 mps 610 mmHg 94%
    21:00 +3°C° 0.1 mm 1 mps 610 mmHg 94%
    22:00 +3°C° 0 mm 1 mps 610 mmHg 93%
    23:00 +2°C° 0 mm 1 mps 610 mmHg 92%

    Day after tomorrow, 31 January, Friday

    Time Temperature Precipitation Wind Pressure Humidity
    00:00 +2°C° 0 mm 1 mps 610 mmHg 91%
    01:00 +2°C° 0 mm 1 mps 610 mmHg 91%
    02:00 +2°C° 0 mm 1 mps 610 mmHg 91%
    03:00 +2°C° 0 mm 1 mps 610 mmHg 90%
    04:00 +2°C° 0.2 mm 1 mps 610 mmHg 92%
    05:00 +2°C° 0.2 mm 1 mps 610 mmHg 93%
    06:00 +2°C° 0.2 mm 1 mps 610 mmHg 94%
    07:00 +3°C° 0.1 mm 1 mps 610 mmHg 93%
    08:00 +3°C° 0.1 mm 1 mps 611 mmHg 93%
    09:00 +4°C° 0.1 mm 1 mps 611 mmHg 93%
    10:00 +5°C° 0 mm 1 mps 611 mmHg 90%
    11:00 +6°C° 0 mm 1 mps 612 mmHg 87%
    12:00 +6°C° 0 mm 0 mps 612 mmHg 84%
    13:00 +7°C° 0 mm 1 mps 612 mmHg 85%
    14:00 +6°C° 0 mm 1 mps 611 mmHg 85%
    15:00 +6°C° 0 mm 1 mps 611 mmHg 86%
    16:00 +5°C° 0 mm 1 mps 610 mmHg 88%
    17:00 +4°C° 0 mm 1 mps 610 mmHg 90%
    18:00 +2°C° 0 mm 1 mps 609 mmHg 92%
    19:00 +2°C° 0 mm 1 mps 609 mmHg 91%
    20:00 +2°C° 0 mm 1 mps 609 mmHg 90%
    21:00 +2°C° 0 mm 1 mps 609 mmHg 90%
    22:00 +2°C° 0 mm 1 mps 609 mmHg 89%
    23:00 +2°C° 0 mm 1 mps 609 mmHg 89%

    1 February, Saturday

    Time Temperature Precipitation Wind Pressure Humidity
    00:00 +2°C° 0 mm 1 mps 609 mmHg 89%
    01:00 +2°C° 0 mm 1 mps 609 mmHg 86%
    02:00 +2°C° 0 mm 1 mps 609 mmHg 83%
    03:00 +3°C° 0 mm 1 mps 609 mmHg 80%
    04:00 +3°C° 0 mm 1 mps 609 mmHg 81%
    05:00 +3°C° 0 mm 1 mps 609 mmHg 83%
    06:00 +4°C° 0 mm 1 mps 609 mmHg 85%
    07:00 +4°C° 0.1 mm 1 mps 610 mmHg 86%
    08:00 +4°C° 0.1 mm 2 mps 611 mmHg 88%
    09:00 +4°C° 0.1 mm 2 mps 611 mmHg 90%
    10:00 +5°C° 0.2 mm 2 mps 612 mmHg 88%
    11:00 +7°C° 0.2 mm 1 mps 612 mmHg 87%
    12:00 +7°C° 0.2 mm 1 mps 613 mmHg 85%
    13:00 +7°C° 0.1 mm 1 mps 613 mmHg 85%
    14:00 +7°C° 0.1 mm 1 mps 613 mmHg 85%
    15:00 +7°C° 0.1 mm 1 mps 613 mmHg 85%
    16:00 +5°C° 0 mm 2 mps 613 mmHg 88%
    17:00 +3°C° 0 mm 2 mps 612 mmHg 91%
    18:00 +2°C° 0 mm 2 mps 612 mmHg 94%
    19:00 +2°C° 0 mm 2 mps 613 mmHg 93%
    20:00 +2°C° 0 mm 2 mps 613 mmHg 93%
    21:00 +2°C° 0 mm 1 mps 613 mmHg 92%
    22:00 +2°C° 0 mm 1 mps 613 mmHg 87%
    23:00 +2°C° 0 mm 1 mps 613 mmHg 83%

    2 February, Sunday

    Time Temperature Precipitation Wind Pressure Humidity
    00:00 +2°C° 0 mm 1 mps 613 mmHg 78%
    01:00 +1°C° 0 mm 2 mps 613 mmHg 75%
    02:00 +1°C° 0 mm 2 mps 613 mmHg 71%
    03:00 +1°C° 0 mm 2 mps 613 mmHg 68%
    04:00 +1°C° 0 mm 2 mps 613 mmHg 64%
    05:00 +1°C° 0 mm 2 mps 613 mmHg 61%
    06:00 +1°C° 0 mm 2 mps 613 mmHg 57%
    07:00 +3°C° 0 mm 2 mps 614 mmHg 58%
    08:00 +5°C° 0 mm 1 mps 614 mmHg 59%
    09:00 +6°C° 0 mm 1 mps 615 mmHg 60%
    10:00 +8°C° 0 mm 1 mps 616 mmHg 60%
    11:00 +9°C° 0 mm 0 mps 617 mmHg 59%
    12:00 +10°C° 0 mm 0 mps 617 mmHg 58%
    13:00 +10°C° 0 mm 0 mps 617 mmHg 62%
    14:00 +10°C° 0 mm 0 mps 617 mmHg 66%
    15:00 +9°C° 0 mm 0 mps 616 mmHg 70%
    16:00 +9°C° 0 mm 1 mps 616 mmHg 68%
    17:00 +7°C° 0 mm 1 mps 615 mmHg 67%
    18:00 +6°C° 0 mm 1 mps 615 mmHg 65%
    19:00 +6°C° 0 mm 1 mps 615 mmHg 64%
    20:00 +5°C° 0 mm 1 mps 615 mmHg 62%
    21:00 +5°C° 0 mm 1 mps 615 mmHg 61%
    22:00 +4°C° 0 mm 2 mps 615 mmHg 59%
    23:00 +4°C° 0 mm 2 mps 615 mmHg 57%

    3 February, Monday

    Time Temperature Precipitation Wind Pressure Humidity
    00:00 +4°C° 0 mm 2 mps 614 mmHg 55%
    01:00 +4°C° 0 mm 2 mps 614 mmHg 55%
    02:00 +4°C° 0 mm 2 mps 614 mmHg 54%
    03:00 +4°C° 0 mm 2 mps 614 mmHg 53%
    04:00 +4°C° 0 mm 2 mps 614 mmHg 53%
    05:00 +4°C° 0 mm 2 mps 614 mmHg 54%
    06:00 +4°C° 0 mm 2 mps 614 mmHg 54%
    07:00 +6°C° 0 mm 1 mps 614 mmHg 55%
    08:00 +7°C° 0 mm 1 mps 615 mmHg 57%
    09:00 +8°C° 0 mm 1 mps 616 mmHg 58%
    10:00 +10°C° 0 mm 1 mps 616 mmHg 57%
    11:00 +11°C° 0 mm 1 mps 617 mmHg 55%
    12:00 +13°C° 0 mm 1 mps 617 mmHg 53%
    13:00 +13°C° 0 mm 1 mps 617 mmHg 56%
    14:00 +12°C° 0 mm 1 mps 616 mmHg 58%
    15:00 +12°C° 0 mm 1 mps 616 mmHg 61%
    16:00 +10°C° 0 mm 1 mps 615 mmHg 64%
    17:00 +8°C° 0 mm 1 mps 614 mmHg 67%
    18:00 +6°C° 0 mm 1 mps 613 mmHg 69%
    19:00 +6°C° 0 mm 1 mps 613 mmHg 68%
    20:00 +5°C° 0 mm 1 mps 613 mmHg 66%
    21:00 +5°C° 0 mm 1 mps 613 mmHg 64%
    22:00 +5°C° 0 mm 1 mps 613 mmHg 63%
    23:00 +4°C° 0 mm 1 mps 613 mmHg 63%
    Show more